This is the latest recevied weather packets stored in our database for station/object N5XL. If no packets are shown the sender has not sent any weather packets the latest 10 day(s).
| Time | Temp. | Humidity | Pressure | Rain* | Wind** | Luminosity | Snow |
|---|---|---|---|---|---|---|---|
| 1777523244 | 25° C | 15% | 1012.7 hPa | 0 mm | - | 0 W/m² | - |
| 1777509363 | 30° C | 12% | 1011 hPa | 0 mm | - | 58 W/m² | - |
| 1777507743 | 30° C | 12% | 1011 hPa | 0 mm | - | 95 W/m² | - |
| 1777507203 | 30° C | 12% | 1011 hPa | 0 mm | - | 99 W/m² | - |
| 1777506303 | 30.56° C | 13% | 1011.1 hPa | 0 mm | - | 167 W/m² | - |
| 1777503243 | 31.67° C | 12% | 1011.1 hPa | 0 mm | - | 259 W/m² | - |
| 1777501624 | 31.11° C | 11% | 1011.6 hPa | 0 mm | - | 402 W/m² | - |
| 1777494963 | 30° C | 12% | 1013.5 hPa | 0 mm | - | 752 W/m² | - |
| 1777490285 | 29.44° C | 14% | 1014.4 hPa | 0 mm | - | 869 W/m² | - |
| 1777482543 | 26.67° C | 18% | 1015.8 hPa | 0 mm | - | 660 W/m² | - |
| 1777476963 | 23.89° C | 22% | 1015.5 hPa | 0 mm | - | 401 W/m² | - |
| 1777476444 | 23.33° C | 22% | 1015.7 hPa | 0 mm | - | 396 W/m² | - |
| 1777475364 | 21.67° C | 25% | 1015.8 hPa | 0 mm | - | 230 W/m² | - |
| 1777473364 | 19.44° C | 29% | 1015.5 hPa | 0 mm | - | 186 W/m² | - |
| 1777469764 | 16.11° C | 29% | 1015.1 hPa | 0 mm | - | 53 W/m² | - |
| 1777465644 | 16.67° C | 30% | 1015.4 hPa | 0 mm | - | 0 W/m² | - |
| 1777463104 | 17.22° C | 25% | 1015 hPa | 0 mm | - | 0 W/m² | - |
| 1777461483 | 16.67° C | 24% | 1015 hPa | 0 mm | - | 0 W/m² | - |
| 1777459504 | 16.67° C | 22% | 1014.5 hPa | 0 mm | - | 0 W/m² | - |
| 1777457883 | 16.67° C | 21% | 1014.7 hPa | 0 mm | - | 0 W/m² | - |
| 1777455904 | 18.89° C | 21% | 1014.8 hPa | 0 mm | - | 0 W/m² | - |
| 1777454283 | 18.89° C | 22% | 1014.9 hPa | 0 mm | - | 0 W/m² | - |
| 1777450164 | 19.44° C | 23% | 1014.8 hPa | 0 mm | - | 0 W/m² | - |
| 1777449243 | 20° C | 23% | 1014.9 hPa | 0 mm | - | 0 W/m² | - |
| 1777442965 | 22.22° C | 19% | 1014.7 hPa | 0 mm | - | 0 W/m² | - |
* Rain latest hour (hover to see other rain measurements)
** Current wind speed in m/s (hover to see current wind gust speed)